When you browse on this site, cookies collect data to enhance your experience and personalize the content and advertising you see.
Visit our Privacy Policy to learn more. By continuing to use the site, you agree to this use of cookies and data.
  • In Austria
  • List of Countries
  • For 7 days
  • Water Temperature
  • Satellite Maps
  • Weather Map
  • News
  • Weather Widgets
  • user-avatar
    Login

    Hourly Weather Knyaz-Bor

    Today, 22 May, Wednesday

    Time Temperature Precipitation Wind Pressure Humidity
    00:00 +15°C° 0 mm 2 mps 745 mmHg 96%
    01:00 +14°C° 0 mm 2 mps 745 mmHg 97%
    02:00 +13°C° 0 mm 2 mps 745 mmHg 97%
    03:00 +13°C° 0 mm 2 mps 745 mmHg 97%
    04:00 +13°C° 0 mm 2 mps 745 mmHg 97%
    05:00 +13°C° 0 mm 1 mps 745 mmHg 96%
    06:00 +14°C° 0 mm 2 mps 745 mmHg 88%
    07:00 +16°C° 0 mm 2 mps 746 mmHg 81%
    08:00 +18°C° 0 mm 2 mps 746 mmHg 73%
    09:00 +19°C° 0 mm 2 mps 745 mmHg 66%
    10:00 +20°C° 0 mm 2 mps 745 mmHg 59%
    11:00 +23°C° 0 mm 2 mps 745 mmHg 52%
    12:00 +23°C° 0.1 mm 2 mps 745 mmHg 51%
    13:00 +24°C° 0.1 mm 2 mps 745 mmHg 51%
    14:00 +24°C° 0.1 mm 1 mps 745 mmHg 50%
    15:00 +24°C° 0.3 mm 1 mps 745 mmHg 51%
    16:00 +24°C° 0.3 mm 1 mps 744 mmHg 53%
    17:00 +24°C° 0.3 mm 1 mps 744 mmHg 54%
    18:00 +22°C° 0.2 mm 1 mps 744 mmHg 63%
    19:00 +20°C° 0.2 mm 1 mps 744 mmHg 73%
    20:00 +18°C° 0.2 mm 1 mps 744 mmHg 82%
    21:00 +15°C° 0 mm 0 mps 744 mmHg 83%
    22:00 +14°C° 0 mm 0 mps 744 mmHg 85%
    23:00 +14°C° 0 mm 0 mps 745 mmHg 86%

    Tomorrow, 23 May, Thursday

    Time Temperature Precipitation Wind Pressure Humidity
    00:00 +13°C° 0 mm 0 mps 745 mmHg 87%
    01:00 +13°C° 0 mm 0 mps 745 mmHg 88%
    02:00 +13°C° 0 mm 0 mps 745 mmHg 89%
    03:00 +13°C° 0 mm 0 mps 745 mmHg 89%
    04:00 +13°C° 0 mm 0 mps 745 mmHg 89%
    05:00 +13°C° 0 mm 0 mps 745 mmHg 89%
    06:00 +15°C° 0 mm 0 mps 745 mmHg 84%
    07:00 +16°C° 0 mm 0 mps 745 mmHg 78%
    08:00 +20°C° 0 mm 1 mps 745 mmHg 72%
    09:00 +20°C° 0 mm 0 mps 745 mmHg 65%
    10:00 +22°C° 0 mm 0 mps 745 mmHg 59%
    11:00 +24°C° 0 mm 0 mps 745 mmHg 52%
    12:00 +26°C° 0 mm 1 mps 745 mmHg 50%
    13:00 +26°C° 0 mm 1 mps 745 mmHg 47%
    14:00 +27°C° 0 mm 1 mps 744 mmHg 44%
    15:00 +26°C° 0 mm 1 mps 744 mmHg 45%
    16:00 +26°C° 0 mm 1 mps 744 mmHg 47%
    17:00 +26°C° 0 mm 1 mps 744 mmHg 48%
    18:00 +24°C° 0 mm 1 mps 744 mmHg 56%
    19:00 +21°C° 0 mm 2 mps 744 mmHg 64%
    20:00 +19°C° 0 mm 2 mps 744 mmHg 73%
    21:00 +19°C° 0 mm 1 mps 744 mmHg 77%
    22:00 +18°C° 0 mm 1 mps 745 mmHg 81%
    23:00 +16°C° 0 mm 1 mps 745 mmHg 85%

    Day after tomorrow, 24 May, Friday

    Time Temperature Precipitation Wind Pressure Humidity
    00:00 +16°C° 0 mm 1 mps 745 mmHg 86%
    01:00 +15°C° 0 mm 1 mps 745 mmHg 88%
    02:00 +15°C° 0 mm 1 mps 745 mmHg 89%
    03:00 +15°C° 0 mm 1 mps 745 mmHg 90%
    04:00 +15°C° 0 mm 1 mps 745 mmHg 90%
    05:00 +15°C° 0 mm 1 mps 745 mmHg 91%
    06:00 +18°C° 0 mm 1 mps 745 mmHg 85%
    07:00 +20°C° 0 mm 1 mps 745 mmHg 78%
    08:00 +22°C° 0 mm 1 mps 746 mmHg 72%
    09:00 +21°C° 0.4 mm 2 mps 745 mmHg 71%
    10:00 +23°C° 0.4 mm 2 mps 745 mmHg 70%
    11:00 +24°C° 0.4 mm 2 mps 745 mmHg 68%
    12:00 +24°C° 0.6 mm 3 mps 745 mmHg 68%
    13:00 +24°C° 0.6 mm 3 mps 745 mmHg 68%
    14:00 +24°C° 0.6 mm 3 mps 745 mmHg 69%
    15:00 +22°C° 0.8 mm 3 mps 745 mmHg 71%
    16:00 +22°C° 0.8 mm 3 mps 745 mmHg 74%
    17:00 +21°C° 0.8 mm 3 mps 744 mmHg 77%
    18:00 +20°C° 0.2 mm 3 mps 744 mmHg 81%
    19:00 +19°C° 0.2 mm 3 mps 744 mmHg 85%
    20:00 +17°C° 0.2 mm 3 mps 744 mmHg 90%
    21:00 +16°C° 0 mm 2 mps 744 mmHg 91%
    22:00 +16°C° 0 mm 2 mps 744 mmHg 93%
    23:00 +15°C° 0 mm 2 mps 744 mmHg 94%

    25 May, Saturday

    Time Temperature Precipitation Wind Pressure Humidity
    00:00 +15°C° 0 mm 2 mps 744 mmHg 95%
    01:00 +14°C° 0 mm 2 mps 744 mmHg 96%
    02:00 +13°C° 0 mm 3 mps 744 mmHg 97%
    03:00 +13°C° 0.5 mm 3 mps 744 mmHg 96%
    04:00 +12°C° 0.5 mm 3 mps 744 mmHg 95%
    05:00 +12°C° 0.5 mm 3 mps 744 mmHg 95%
    06:00 +12°C° 0.1 mm 3 mps 745 mmHg 90%
    07:00 +13°C° 0.1 mm 4 mps 745 mmHg 85%
    08:00 +14°C° 0.1 mm 4 mps 745 mmHg 80%
    09:00 +17°C° 0 mm 4 mps 745 mmHg 68%
    10:00 +17°C° 0 mm 5 mps 745 mmHg 56%
    11:00 +20°C° 0 mm 5 mps 745 mmHg 44%
    12:00 +20°C° 0 mm 5 mps 745 mmHg 45%
    13:00 +21°C° 0 mm 4 mps 745 mmHg 45%
    14:00 +22°C° 0 mm 4 mps 744 mmHg 46%
    15:00 +22°C° 0.1 mm 4 mps 744 mmHg 50%
    16:00 +21°C° 0.1 mm 4 mps 744 mmHg 55%
    17:00 +21°C° 0.1 mm 4 mps 744 mmHg 59%
    18:00 +19°C° 0.4 mm 3 mps 744 mmHg 69%
    19:00 +17°C° 0.4 mm 3 mps 744 mmHg 79%
    20:00 +16°C° 0.4 mm 2 mps 744 mmHg 89%
    21:00 +15°C° 0 mm 2 mps 744 mmHg 91%
    22:00 +14°C° 0 mm 2 mps 744 mmHg 92%
    23:00 +12°C° 0 mm 3 mps 745 mmHg 94%

    26 May, Sunday

    Time Temperature Precipitation Wind Pressure Humidity
    00:00 +12°C° 0 mm 3 mps 745 mmHg 95%
    01:00 +11°C° 0 mm 3 mps 745 mmHg 96%
    02:00 +11°C° 0 mm 3 mps 745 mmHg 96%
    03:00 +10°C° 0 mm 3 mps 745 mmHg 96%
    04:00 +10°C° 0 mm 2 mps 745 mmHg 96%
    05:00 +10°C° 0 mm 2 mps 745 mmHg 96%
    06:00 +11°C° 0.1 mm 3 mps 745 mmHg 91%
    07:00 +12°C° 0.1 mm 3 mps 745 mmHg 87%
    08:00 +13°C° 0.1 mm 4 mps 745 mmHg 83%
    09:00 +14°C° 0.2 mm 4 mps 745 mmHg 77%
    10:00 +15°C° 0.2 mm 5 mps 745 mmHg 71%
    11:00 +16°C° 0.2 mm 5 mps 745 mmHg 66%
    12:00 +16°C° 0.1 mm 5 mps 745 mmHg 66%
    13:00 +16°C° 0.1 mm 5 mps 744 mmHg 65%
    14:00 +16°C° 0.1 mm 5 mps 744 mmHg 65%
    15:00 +16°C° 0.1 mm 5 mps 744 mmHg 65%
    16:00 +16°C° 0.1 mm 5 mps 744 mmHg 65%
    17:00 +16°C° 0.1 mm 6 mps 743 mmHg 65%
    18:00 +15°C° 0.1 mm 5 mps 744 mmHg 70%
    19:00 +13°C° 0.1 mm 4 mps 744 mmHg 75%
    20:00 +12°C° 0.1 mm 3 mps 744 mmHg 80%
    21:00 +12°C° 0 mm 3 mps 744 mmHg 81%
    22:00 +11°C° 0 mm 4 mps 744 mmHg 81%
    23:00 +11°C° 0 mm 4 mps 744 mmHg 82%

    27 May, Monday

    Time Temperature Precipitation Wind Pressure Humidity
    00:00 +11°C° 0 mm 4 mps 744 mmHg 83%
    01:00 +10°C° 0 mm 4 mps 744 mmHg 84%
    02:00 +10°C° 0 mm 4 mps 744 mmHg 85%
    03:00 +10°C° 0.1 mm 4 mps 744 mmHg 86%
    04:00 +8°C° 0.1 mm 4 mps 745 mmHg 87%
    05:00 +8°C° 0.1 mm 4 mps 745 mmHg 88%
    06:00 +9°C° 0 mm 5 mps 745 mmHg 79%
    07:00 +10°C° 0 mm 5 mps 745 mmHg 71%
    08:00 +10°C° 0 mm 6 mps 746 mmHg 62%
    09:00 +13°C° 0 mm 6 mps 746 mmHg 59%
    10:00 +14°C° 0 mm 6 mps 746 mmHg 57%
    11:00 +15°C° 0 mm 6 mps 746 mmHg 54%
    12:00 +16°C° 0 mm 6 mps 746 mmHg 54%
    13:00 +17°C° 0 mm 6 mps 746 mmHg 53%
    14:00 +17°C° 0 mm 6 mps 746 mmHg 52%
    15:00 +17°C° 0 mm 6 mps 747 mmHg 53%
    16:00 +17°C° 0 mm 5 mps 747 mmHg 54%
    17:00 +19°C° 0 mm 5 mps 747 mmHg 54%
    18:00 +17°C° 0 mm 4 mps 747 mmHg 61%
    19:00 +16°C° 0 mm 2 mps 747 mmHg 68%
    20:00 +15°C° 0 mm 1 mps 747 mmHg 75%
    21:00 +14°C° 0 mm 2 mps 747 mmHg 78%
    22:00 +14°C° 0 mm 2 mps 747 mmHg 82%
    23:00 +13°C° 0 mm 3 mps 746 mmHg 86%
    Show more